This is the latest recevied weather packets stored in our database for station/object KF7ROW. If no packets are shown the sender has not sent any weather packets the latest 10 day(s).
| Time | Temp. | Humidity | Pressure | Rain* | Wind** | Luminosity | Snow |
|---|---|---|---|---|---|---|---|
| 1777753520 | 14.44° C | 81% | 1018.7 hPa | 0 mm | - | 872 W/m² | - |
| 1777753219 | 13.89° C | 82% | 1018.8 hPa | 0 mm | - | 868 W/m² | - |
| 1777752914 | 13.89° C | 83% | 1018.9 hPa | 0 mm | - | 834 W/m² | - |
| 1777752611 | 13.89° C | 85% | 1019 hPa | 0 mm | - | 894 W/m² | - |
| 1777752307 | 13.33° C | 85% | 1019.1 hPa | 0 mm | - | 966 W/m² | - |
| 1777752005 | 13.33° C | 86% | 1019.4 hPa | 0 mm | - | 843 W/m² | - |
| 1777751702 | 12.78° C | 86% | 1019.4 hPa | 0 mm | - | 789 W/m² | - |
| 1777751398 | 12.78° C | 86% | 1019.4 hPa | 0 mm | - | 973 W/m² | - |
| 1777751095 | 12.78° C | 86% | 1019.5 hPa | 0 mm | - | 438 W/m² | - |
| 1777750790 | 12.78° C | 87% | 1019.4 hPa | 0 mm | - | 814 W/m² | - |
| 1777750488 | 12.78° C | 87% | 1019.4 hPa | 0 mm | - | 315 W/m² | - |
| 1777750184 | 12.78° C | 88% | 1019.3 hPa | 0 mm | - | 264 W/m² | - |
| 1777749881 | 12.78° C | 88% | 1019.4 hPa | 0 mm | - | 206 W/m² | - |
| 1777749578 | 12.78° C | 86% | 1019.5 hPa | 0 mm | - | 169 W/m² | - |
| 1777749275 | 13.33° C | 84% | 1019.5 hPa | 0 mm | - | 136 W/m² | - |
| 1777748973 | 13.33° C | 82% | 1019.6 hPa | 0 mm | - | 123 W/m² | - |
| 1777748670 | 13.33° C | 81% | 1019.7 hPa | 0 mm | - | 103 W/m² | - |
| 1777748366 | 13.33° C | 80% | 1019.7 hPa | 0 mm | - | 108 W/m² | - |
| 1777748061 | 13.33° C | 80% | 1020 hPa | 0 mm | - | 127 W/m² | - |
| 1777747759 | 13.89° C | 79% | 1019.7 hPa | 0 mm | - | 158 W/m² | - |
| 1777747449 | 13.33° C | 79% | 1019.9 hPa | 0 mm | - | 540 W/m² | - |
| 1777747145 | 13.33° C | 79% | 1019.8 hPa | 0 mm | - | 200 W/m² | - |
| 1777746841 | 13.89° C | 79% | 1019.8 hPa | 0 mm | - | 329 W/m² | - |
| 1777746537 | 13.89° C | 75% | 1020.1 hPa | 0 mm | - | 605 W/m² | - |
| 1777746233 | 13.89° C | 79% | 1020 hPa | 0 mm | - | 758 W/m² | - |
* Rain latest hour (hover to see other rain measurements)
** Current wind speed in m/s (hover to see current wind gust speed)